Regional Weather Roundup
Issued by NWS

Home | Current Version | Previous Version | Graphics & Text | Print | Product List | Glossary On
Versions: 1 2 3 4 5 6 7 8 9 10 11 12 13 14 15 16 17 18 19 20 21 22 23 24 25 26 27 28 29 30 31 32 33 34 35 36 37 38 39 40 41 42 43 44 45 46 47 48 49 50
000
ASUS43 KMPX 261401
RWRMN
WEATHER ROUNDUP FOR MINNESOTA
NATIONAL WEATHER SERVICE TWIN CITIES/CHANHASSEN MN
900 AM CDT SUN APR 26 2015


NOTE: "FAIR" INDICATES FEW OR NO CLOUDS BELOW 12,000 FEET WITH NO
SIGNIFICANT WEATHER AND/OR OBSTRUCTIONS TO VISIBILITY. N/A MEANS
CURRENT SKY AND/OR WEATHER CONDITIONS ARE NOT AVAILABLE.

MNZ060>063-068>070-261500-
   Twin Cities Metro

CITY           SKY/WX    TMP DP  RH WIND       PRES   REMARKS
TWIN CITIES    SUNNY     44  24  45 E6        30.11R
ST PAUL        SUNNY     45  24  43 CALM      30.12R
CRYSTAL        SUNNY     42  25  50 NE3       30.11R
BLAINE         SUNNY     43  27  52 NE9       30.11R
LAKEVILLE      SUNNY     43  27  52 E3        30.10R
EDEN PRAIRIE   SUNNY     44  26  49 VRB5      30.09R
SOUTH ST PAUL  SUNNY     46  24  42 SE3       30.10R
LAKE ELMO      FAIR      43  27  52 NE5       30.12R
$$
MNZ001>005-007-008-013>017-022>024-027-028-261500-
   Northwest Minnesota

CITY           SKY/WX    TMP DP  RH WIND       PRES   REMARKS
BEMIDJI        SUNNY     43  18  36 SE7       30.15R
HALLOCK        MOSUNNY   52  27  37 S12       30.12R
ROSEAU         SUNNY     48  28  46 SW5       30.14R
WARROAD        SUNNY     39  30  70 E3        30.15S
THIEF RVR FALL SUNNY     46  19  34 S8        30.14R
CROOKSTON      SUNNY     48  18  29 S12       30.13R
FOSSTON        SUNNY     46  12  25 S9        30.13R
DETROIT LAKES  SUNNY     45  14  29 SE10      30.12S
MOORHEAD       SUNNY     46  12  25 SE10      30.11S
PARK RAPIDS    SUNNY     44  13  28 SE8       30.13S
MAHNOMEN       FAIR      46  15  29 SE7       30.11S
$$
MNZ006-009>011-018-025>026-261500-
   North Central Minnesota

CITY           SKY/WX    TMP DP  RH WIND       PRES   REMARKS
BAUDETTE       SUNNY     45  22  40 SE7       30.16R
FLAG ISLAND    SUNNY     43  25  49 SE6       30.15R
INTL FALLS     SUNNY     43  22  43 CALM      30.18R
WASKISH        SUNNY     46  19  34 CALM      30.16S
BIG FORK       SUNNY     43  18  36 CALM      30.17R
LONGVILLE      SUNNY     41  16  36 CALM      30.16R
GRAND RAPIDS   SUNNY     41  14  33 CALM      30.17R
CRANE LAKE     SUNNY     39  27  60 CALM      30.19R
ORR            SUNNY     43  18  36 CALM      30.15R
COOK           SUNNY     41  21  45 CALM      30.17R
WALKER         FAIR      41  15  34 E3        30.15R
$$
MNZ012-019>021-037-261500-
   Northeast Minnesota

CITY           SKY/WX    TMP DP  RH WIND       PRES   REMARKS
DULUTH         SUNNY     44  16  32 E7        30.14R
ELY            SUNNY     39  21  48 E3        30.16R
HIBBING        SUNNY     43  16  33 SE3       30.16R
EVELETH        SUNNY     43  21  42 CALM      30.16R
DULUTH HARBOR  SUNNY     37  27  65 CALM      30.18R
TWO HARBORS    SUNNY     48  25  40 NE7       30.14R
SILVER BAY     SUNNY     46  19  34 NE9       30.14R
GRAND MARAIS     N/A     42  28  57 E3        30.17R
G MARAIS ARPRT SUNNY     43  18  36 N8        30.14R
$$
MNZ029>031-032-039>041-046>048-054>057-064-261500-
   West Central Minnesota

CITY           SKY/WX    TMP DP  RH WIND       PRES   REMARKS
FERGUS FALLS   SUNNY     46   3  17 SE8       30.13R
WHEATON        SUNNY     39  27  60 SE6       30.13R
MORRIS         SUNNY     45  27  49 E9        30.10S
ALEXANDRIA     SUNNY     42  20  41 E6        30.13R
ELBOW LAKE     FAIR      43  22  44 E10       30.11S
WADENA         SUNNY     39  19  45 E6        30.13S
GLENWOOD       SUNNY     41  25  52 E6        30.12S
APPLETON       SUNNY     45  27  49 E8        30.11R
BENSON         SUNNY     45  25  45 E6        30.11R
ORTONVILLE     SUNNY     43  25  49 SE6       30.10S
MADISON        SUNNY     43  27  52 E3        30.10S
WILLMAR        FAIR      45  28  53 E9        30.12R
$$
MNZ033>034-036-042>043-049>051-058-059-261500-
   Central Minnesota

CITY           SKY/WX    TMP DP  RH WIND       PRES   REMARKS
ST CLOUD       SUNNY     42  24  49 NE6       30.12R
SAUK CENTRE    FAIR      41  23  48 NE6       30.12S
PAYNESVILLE    SUNNY     37  25  61 N6        30.13R
AITKIN         SUNNY     39  18  41 CALM      30.15R
PINE RIVER     SUNNY     39  21  48 E3        30.18R
BRAINERD       SUNNY     41  17  38 NE6       30.15R
STAPLES        SUNNY     41  19  42 E3        30.14R
LONG PRAIRIE   FAIR      41  23  48 NE6       30.13R
LITTLE FALLS   SUNNY     43  21  42 E6        30.14R
LITCHFIELD     SUNNY     41  28  60 NE6       30.11R
BUFFALO        SUNNY     41  26  55 NE7       30.12R
MAPLE LAKE     SUNNY     41  28  60 NE7       30.12R
$$
MNZ037-044-045-052-053-261500-
   East Central Minnesota

CITY           SKY/WX    TMP DP  RH WIND       PRES   REMARKS
PRINCETON      SUNNY     43  25  49 N7        30.12S
MORA           SUNNY     41  23  48 E3        30.15R
CAMBRIDGE      SUNNY     43  27  52 N5        30.11R
RUSH CITY      SUNNY     39  26  59 NE3       30.14R
MOOSE LAKE     SUNNY     41  19  42 CALM      30.14R
HINCKLEY       FAIR      41  25  52 E8        30.14R
CLOQUET        SUNNY     41  16  36 E7        30.14R
MCGREGOR       SUNNY     41  21  45 E3        30.16R
$$
MNZ071>073-080-081-089-090-097-098-261500-
   Southwest Minnesota

CITY           SKY/WX    TMP DP  RH WIND       PRES   REMARKS
MONTEVIDEO     SUNNY     45  28  53 SE6       30.12R
GRANITE FALLS  SUNNY     42  26  53 CALM      30.11S
CANBY          SUNNY     42  31  65 E3        30.11S
MARSHALL       SUNNY     43  25  49 NE5       30.10R
REDWOOD FALLS  SUNNY     44  25  47 NE5       30.09R
OLIVIA         SUNNY     41  25  52 NE6       30.09R
PIPESTONE      SUNNY     46  39  76 NE3       30.06R
WINDOM         SUNNY     45  30  57 CALM      30.07R
WORTHINGTON    SUNNY     45  36  70 N5        30.07R
JACKSON        SUNNY     46  32  57 NE6       30.07R
TRACY          SUNNY     42  28  58 NE3       30.10R
SLAYTON        SUNNY     44  35  70 CALM      30.08R
$$
MNZ065>067-074>077-082>085-091>093-261500-
   South Central Minnesota

CITY           SKY/WX    TMP DP  RH WIND       PRES   REMARKS
MANKATO        SUNNY     46  27  46 CALM      30.08R
NEW ULM        SUNNY     43  25  49 NE6       30.08R
ST JAMES       SUNNY     45  28  53 N5        30.09R
FAIRMONT       SUNNY     45  30  57 N6        30.06R
GLENCOE        SUNNY     42  29  61 NE5       30.10R
FARIBAULT      SUNNY     45  28  53 CALM      30.09R
OWATONNA       SUNNY     46  21  36 SE9       30.08R
WASECA         SUNNY     43  27  52 E6        30.08R
ALBERT LEA     SUNNY     46  21  36 SE8       30.07R
$$
MNZ078>079-086>088-094>096-261500-
   Southeast Minnesota

CITY           SKY/WX    TMP DP  RH WIND       PRES   REMARKS
ROCHESTER      SUNNY     46  24  42 E7        30.09R
RED WING       SUNNY     46  25  42 SE5       30.09S
STANTON        SUNNY     45  28  53 CALM      30.08R
DODGE CENTER   SUNNY     45  28  53 SE8       30.08R
WINONA         SUNNY     43  28  56 CALM      30.11R
AUSTIN         SUNNY     45  28  53 E9        30.07R
PRESTON        SUNNY     43  21  42 NE6       30.08R
$$
ABBREVIATIONS USED IN REMARKS
   TC - TEMPERATURES IN CELSIUS
  WCI - WIND CHILL INDEX
   HX - HEAT INDEX
  VSB - VISIBILITY
$$



USA.gov is the U.S. government's official web portal to all federal, state and local government web resources and services.